Total_Precipitation_Accumulation
1.11 1.23 1.47 1.83 2.21 2.67 2.76 2.76 2.83 2.99 3.10 3.11 3.01 2.81 2.49 2.28 2.05 1.88 1.80 1.70 1.63 1.62 1.64 1.49 1.42 1.41 1.38 1.32 1.29 1.22 1.07 0.89 0.84 0.77 0.58 0.42 0.33 0.30 0.26 0.26 0.26 0.25 0.24
1.05 1.17 1.35 1.60 1.79 2.22 2.57 2.61 2.67 2.74 2.80 2.79 2.89 2.93 2.79 2.52 2.30 2.08 1.91 1.78 1.65 1.60 1.62 1.65 1.58 1.47 1.46 1.44 1.41 1.33 1.21 1.09 1.01 0.93 0.85 0.67 0.49 0.36 0.30 0.28 0.29 0.28 0.28
0.97 1.10 1.22 1.49 1.64 1.95 2.34 2.52 2.62 2.71 2.69 2.79 3.09 3.22 3.16 2.83 2.55 2.29 2.03 1.84 1.75 1.71 1.60 1.55 1.58 1.55 1.52 1.49 1.46 1.47 1.48 1.37 1.25 1.13 1.16 0.97 0.70 0.51 0.39 0.34 0.33 0.35 0.36
0.87 0.94 1.04 1.33 1.50 1.69 1.98 2.21 2.51 2.70 2.79 2.87 2.99 2.98 2.76 2.53 2.28 2.21 2.11 2.00 1.89 1.75 1.69 1.64 1.60 1.58 1.55 1.50 1.52 1.53 1.55 1.59 1.49 1.35 1.25 1.13 0.94 0.86 0.66 0.49 0.45 0.48 0.49
0.84 0.96 1.01 1.14 1.26 1.48 1.75 1.87 2.09 2.35 2.52 2.64 2.82 2.90 2.69 2.42 2.25 2.18 2.11 2.02 1.97 1.83 1.71 1.65 1.65 1.63 1.59 1.55 1.55 1.58 1.58 1.61 1.61 1.53 1.41 1.33 1.15 0.99 0.93 0.73 0.60 0.59 0.55
0.85 0.93 0.93 1.01 1.12 1.27 1.56 1.71 1.87 2.04 2.24 2.33 2.53 2.76 2.61 2.35 2.09 2.00 1.95 1.87 1.83 1.74 1.62 1.57 1.56 1.55 1.52 1.48 1.45 1.49 1.53 1.54 1.51 1.48 1.40 1.37 1.29 1.14 1.10 1.00 0.80 0.76 0.69
0.76 0.84 0.88 1.01 1.09 1.20 1.32 1.39 1.51 1.65 1.87 2.03 2.13 2.35 2.41 2.35 2.15 1.92 1.85 1.76 1.67 1.57 1.48 1.45 1.43 1.46 1.44 1.44 1.43 1.42 1.40 1.45 1.47 1.44 1.36 1.27 1.17 1.13 1.20 1.21 1.04 0.89 0.76
0.74 0.74 0.80 0.92 1.05 1.15 1.15 1.12 1.19 1.35 1.48 1.60 1.70 1.87 1.91 2.01 2.06 1.94 1.76 1.66 1.55 1.47 1.44 1.46 1.45 1.47 1.50 1.43 1.42 1.40 1.35 1.36 1.37 1.36 1.34 1.29 1.19 1.14 1.15 1.20 1.26 1.20 0.99
0.68 0.72 0.81 0.87 0.92 1.00 1.00 0.99 1.03 1.13 1.19 1.33 1.42 1.56 1.58 1.59 1.70 1.74 1.71 1.64 1.52 1.43 1.42 1.47 1.45 1.39 1.38 1.34 1.34 1.35 1.27 1.20 1.20 1.20 1.23 1.23 1.16 1.14 1.14 1.18 1.31 1.53 1.48
0.68 0.76 0.87 0.92 0.92 0.95 0.94 0.89 0.93 0.99 1.07 1.16 1.27 1.36 1.39 1.44 1.48 1.50 1.46 1.43 1.39 1.32 1.30 1.34 1.36 1.33 1.28 1.26 1.24 1.20 1.15 1.12 1.05 1.02 1.05 1.08 1.09 1.11 1.15 1.23 1.32 1.47 1.64
0.67 0.77 0.87 0.96 0.95 0.90 0.87 0.85 0.83 0.87 0.95 1.02 1.09 1.16 1.18 1.22 1.31 1.31 1.30 1.27 1.19 1.10 1.09 1.16 1.19 1.15 1.10 1.09 1.10 1.07 1.05 1.05 1.03 0.99 0.96 0.94 0.97 1.06 1.12 1.20 1.30 1.41 1.54
0.60 0.69 0.75 0.79 0.81 0.82 0.85 0.88 0.83 0.83 0.85 0.93 1.02 1.04 1.06 1.04 1.10 1.14 1.17 1.16 1.12 1.03 0.98 1.01 1.06 1.05 1.00 0.98 0.98 0.96 0.95 1.00 1.02 1.02 1.03 1.00 1.01 1.07 1.13 1.21 1.26 1.28 1.32
0.55 0.58 0.66 0.68 0.66 0.69 0.77 0.83 0.84 0.83 0.81 0.84 0.94 1.03 1.04 0.97 0.99 1.03 1.01 1.01 1.02 1.01 0.98 0.92 0.94 0.95 0.96 0.96 0.95 0.94 0.93 0.95 0.99 1.04 1.08 1.08 1.10 1.13 1.11 1.10 1.10 1.09 1.06
0.54 0.54 0.56 0.58 0.58 0.60 0.61 0.65 0.69 0.73 0.77 0.82 0.87 0.92 0.98 0.96 0.92 0.94 0.92 0.92 0.93 0.95 0.94 0.90 0.87 0.89 0.93 0.96 0.97 1.00 1.03 1.06 1.08 1.10 1.13 1.12 1.12 1.08 1.06 1.02 0.97 0.95 0.95
0.46 0.46 0.46 0.48 0.49 0.52 0.52 0.53 0.55 0.64 0.73 0.80 0.82 0.82 0.88 0.91 0.92 0.91 0.91 0.89 0.91 0.91 0.91 0.88 0.85 0.89 0.95 1.01 1.03 1.04 1.09 1.16 1.19 1.17 1.13 1.10 1.13 1.10 1.03 0.97 0.94 0.94 0.98
0.40 0.40 0.39 0.39 0.40 0.46 0.50 0.50 0.51 0.59 0.64 0.72 0.77 0.75 0.74 0.77 0.85 0.93 0.95 0.95 0.92 0.93 0.94 0.97 0.96 0.98 1.05 1.29 1.30 1.22 1.18 1.20 1.18 1.14 1.07 1.01 1.02 0.99 1.00 0.98 0.96 1.00 1.08
0.34 0.35 0.35 0.34 0.38 0.43 0.46 0.44 0.48 0.57 0.60 0.67 0.76 0.77 0.75 0.78 0.81 0.89 0.97 1.01 1.02 1.02 1.07 1.13 1.17 1.17 1.24 1.36 1.27 1.21 1.07 1.05 1.02 0.96 0.89 0.84 0.80 0.82 0.74 0.81 0.90 0.93 1.01
0.31 0.30 0.30 0.30 0.31 0.35 0.39 0.42 0.44 0.50 0.54 0.59 0.67 0.74 0.78 0.88 0.94 0.99 1.02 1.05 1.09 1.15 1.23 1.30 1.30 1.26 1.26 1.23 1.05 0.99 0.87 0.81 0.77 0.73 0.68 0.66 0.64 0.65 0.69 0.72 0.79 0.74 0.71
0.33 0.33 0.32 0.34 0.32 0.31 0.35 0.40 0.45 0.51 0.55 0.60 0.67 0.74 0.79 0.86 0.95 1.07 1.12 1.14 1.17 1.22 1.23 1.20 1.13 1.02 0.95 0.92 0.79 0.70 0.62 0.61 0.59 0.55 0.55 0.56 0.53 0.65 0.81 0.82 0.81 0.68 0.59
0.30 0.33 0.32 0.34 0.36 0.37 0.40 0.45 0.50 0.58 0.67 0.74 0.79 0.89 0.95 0.96 0.96 1.02 1.08 1.08 1.02 0.99 0.90 0.80 0.72 0.64 0.57 0.60 0.59 0.57 0.48 0.49 0.50 0.51 0.52 0.62 0.62 0.74 0.87 0.80 0.79 0.71 0.59
0.28 0.33 0.36 0.38 0.41 0.45 0.52 0.60 0.66 0.73 0.80 0.86 0.88 0.96 1.01 1.00 0.96 0.87 0.78 0.71 0.66 0.63 0.60 0.55 0.48 0.45 0.45 0.47 0.48 0.53 0.51 0.50 0.49 0.49 0.49 0.54 0.70 0.79 0.85 0.80 0.68 0.74 0.80
0.28 0.35 0.40 0.43 0.46 0.52 0.57 0.63 0.69 0.72 0.73 0.77 0.76 0.77 0.72 0.64 0.60 0.60 0.55 0.51 0.50 0.48 0.48 0.48 0.48 0.45 0.44 0.47 0.49 0.52 0.57 0.60 0.54 0.48 0.44 0.49 0.68 0.73 0.74 0.69 0.69 0.80 0.78
0.21 0.26 0.31 0.34 0.36 0.39 0.45 0.51 0.51 0.47 0.45 0.46 0.46 0.47 0.45 0.42 0.42 0.44 0.46 0.47 0.47 0.48 0.48 0.47 0.47 0.47 0.44 0.46 0.54 0.56 0.61 0.65 0.60 0.54 0.55 0.55 0.57 0.55 0.56 0.61 0.65 0.65 0.59
0.18 0.22 0.24 0.26 0.27 0.28 0.33 0.40 0.38 0.33 0.32 0.36 0.37 0.38 0.40 0.40 0.41 0.42 0.43 0.46 0.48 0.47 0.48 0.49 0.48 0.46 0.46 0.46 0.47 0.53 0.59 0.63 0.63 0.64 0.65 0.59 0.53 0.50 0.50 0.52 0.51 0.49 0.52
0.22 0.25 0.29 0.29 0.29 0.28 0.29 0.31 0.32 0.31 0.32 0.33 0.36 0.36 0.38 0.40 0.41 0.43 0.46 0.50 0.52 0.55 0.56 0.53 0.50 0.51 0.50 0.49 0.59 0.61 0.59 0.63 0.70 0.73 0.64 0.61 0.56 0.53 0.50 0.48 0.46 0.48 0.53
0.26 0.28 0.32 0.35 0.35 0.34 0.34 0.33 0.34 0.35 0.36 0.37 0.38 0.39 0.41 0.42 0.46 0.49 0.50 0.56 0.59 0.62 0.62 0.57 0.54 0.50 0.50 0.54 0.60 0.62 0.64 0.69 0.76 0.76 0.64 0.56 0.53 0.50 0.46 0.46 0.46 0.46 0.51